Location: El Águila
(10.4167°N, 66.7167°W)
Time: 23:49:04
(UTC+00:00)

SWIFT - Pass Details

Date: 02 April 2023
Orbit: 527 x 541 km, 20.6° (Epoch: 28 May)

Event Time Altitude Azimuth Distance (km) Brightness Sun altitude
Exits shadow 09:21:11 15° 208° (SSW) 1,479 4.2 -16.1°
Maximum altitude 09:21:31 16° 202° (SSW) 1,473 4.2 -16.0°
Drops below altitude 10° 09:24:02 10° 165° (SSE) 1,794 5.0 -15.4°
Sets 09:27:04 0° 142° (SE) 2,685 6.3 -14.6°
